Meteo Giornale » Osservazioni meteo Stati Uniti (USA) » Tweed-New Haven

ore: 17:53 - Osservazioni Meteo Tweed-New Haven
Lat. 41° 15' N Lon. 72° 53' W Alt. 4 metri s.l.m.

coperto

20 °C

Coperto

Temp. 24 Ore

19 °C

23 °C

Est/Nord-Est

14.8 Km/h

Dew point 17 °C

Umidità 82 %

Visibilità  10 Km

Il sole sorge alle ore 06:18

Il sole tramonta alle ore 19:24

Data e Ora Cielo e Fenomeni T °C DP °C Um. % Pres. hPa Vis. km Vento km/h
Oggi h: 17:53 coperto Coperto 20 17 82 1016 10 E/NE 14.8
Oggi h: 16:53 coperto Coperto 19 18 93 1015 14 E 16.7
Oggi h: 15:53 coperto Coperto 21 19 88 1015 11 E 16.7
Oggi h: 14:53 coperto Coperto 21 19 88 1015 11 E 14.8
Oggi h: 13:53 coperto Coperto 23 22 94 1015 11 S 11.1
Oggi h: 12:53 coperto Coperto 23 22 94 1015 11 S/SO 9.3
Oggi h: 11:53 foschia Foschia 23 22 94 1016 8 S 14.8
Oggi h: 10:53 foschia Foschia 22 22 100 1016 6 S/SE 9.3
Oggi h: 09:53 coperto_pioggia Pioggia Foschia 22 21 94 1016 6 N 5.5
Oggi h: 08:53 coperto Coperto 22 21 94 1016 10 S 9.3
Oggi h: 07:53 coperto Coperto 21 20 94 1016 10 S/SE 9.3
Oggi h: 06:53 coperto Coperto 21 20 94 1016 14 S 7.4
Oggi h: 05:53 foschia Foschia 21 20 94 1016 8 S 11.1
Oggi h: 05:33 foschia Foschia 21 21 100 1016 6 S 9.3
Oggi h: 05:16 foschia Foschia 21 20 94 1016 6 S/SO 9.3
Oggi h: 05:05 foschia Foschia 21 20 94 1016 6 S/SO 9.3
Oggi h: 04:53 foschia Foschia 21 21 100 1016 6 S/SO 9.3
Oggi h: 04:50 coperto_pioggia Pioggia Foschia 21 21 100 1016 6 S 9.3
Oggi h: 04:36 coperto_pioggia Pioggia Foschia 21 20 94 1017 6 N 0
Oggi h: 04:24 coperto_pioggia Pioggia Foschia 21 20 94 1017 2 S/SO 7.4
Oggi h: 04:17 coperto_pioggia Pioggia Foschia 21 20 94 1017 2 S/SO 7.4
Oggi h: 04:09 coperto_pioggia Pioggia Foschia 21 20 94 1017 2 S/SO 7.4
Oggi h: 03:53 coperto_pioggia Pioggia Foschia 21 20 94 1017 6 S 7.4
Oggi h: 03:31 coperto_pioggia Pioggia Foschia 21 20 94 1017 6 S 7.4
Oggi h: 03:15 coperto_pioggia Pioggia Foschia 21 20 94 1017 5 S/SO 9.3
Oggi h: 02:53 coperto_pioggia Pioggia Foschia 21 20 94 1017 2 S 7.4
Oggi h: 02:50 coperto_pioggia Pioggia Foschia 21 20 94 1017 2 S/SE 7.4
Oggi h: 02:47 coperto_pioggia Pioggia Foschia 21 20 94 1017 5 S/SE 7.4
Oggi h: 02:42 coperto_pioggia Pioggia Foschia 21 20 94 1017 2 N 5.5
Oggi h: 02:16 coperto_pioggia Pioggia Foschia 21 20 94 1017 8 S 11.1
Oggi h: 01:53 coperto Coperto 22 20 88 1017 10 S 11.1
Oggi h: 00:53 coperto Coperto 22 19 83 1018 10 N 5.5
Ieri h: 23:53 coperto Coperto 22 19 83 1018 10 S 7.4
Ieri h: 22:53 coperto Coperto 22 19 83 1018 10 S 9.3
Ieri h: 21:53 coperto Coperto 22 18 78 1018 10 S 11.1
Ieri h: 20:53 coperto Coperto 22 18 78 1018 10 S 11.1
Ieri h: 19:53 coperto Coperto 22 18 78 1018 10 S 13
Ieri h: 18:53 coperto Coperto 22 17 73 1019 10 S/SE 13